Location: Diati
(11.8376°N, 2.5966°E)
Time: 18:17:27
(UTC+00:00)

Cosmos 1900 - Pass Details

Date: 21 September 2020
Orbit: 679 x 743 km, 66.1° (Epoch: 19 October)

Event Time Altitude Azimuth Distance (km) Brightness Sun altitude
Rises 18:40:08 0° 340° (NNW) 3,167 8.0 -14.0°
Reaches altitude 10° 18:42:31 10° 342° (NNW) 2,241 7.2 -14.6°
Maximum altitude 18:47:39 81° 69° (ENE) 746 4.3 -15.9°
Drops below altitude 10° 18:52:43 10° 156° (SSE) 2,213 6.6 -17.1°
Enters shadow 18:53:51 - 157° (SSE) 2,651 7.0 -17.4°
